Location: Mexico
(19.4000°N, 99.1500°W)
Time: 23:43:18
(UTC-06:00)

ISS - Pass Details

Date: 17 May 2019
Orbit: 407 x 410 km, 51.6° (Epoch: 23 May)

Event Time Altitude Azimuth Distance (km) Brightness Sun altitude
Rises 20:08:32 0° 225° (SW) 2,314 0.3 -14.4°
Reaches altitude 10° 20:10:37 10° 229° (SW) 1,456 -0.7 -14.9°
Maximum altitude 20:13:50 58° 309° (NW) 474 -3.2 -15.5°
Drops below altitude 10° 20:17:04 10° 30° (NNE) 1,460 -1.0 -16.2°
Sets 20:19:11 0° 34° (NE) 2,322 0.0 -16.7°
